| time (UTC) | temp F | wind direction | speed MPH | gust MPH | rain 1hr in | rain 24hr in | rain mn in | humidity % | barometer mb |
| 20260506024526 | 54 | 217 | 1.0 | 3.0 | 0.00 | 0.24 | 0.14 | 69 | 1013.6 |
| 20260506023029 | 55 | 216 | 1.0 | 5.0 | 0.00 | 0.24 | 0.14 | 66 | 1013.5 |
| 20260506021514 | 57 | 216 | 2.0 | 4.0 | 0.00 | 0.24 | 0.14 | 63 | 1013.4 |
| 20260506020030 | 59 | 217 | 2.0 | 4.0 | 0.00 | 0.24 | 0.14 | 59 | 1013.3 |
| 20260506014525 | 62 | 186 | 2.0 | 5.0 | 0.00 | 0.24 | 0.14 | 51 | 1013.3 |
| 20260506013029 | 64 | 182 | 3.0 | 5.0 | 0.00 | 0.24 | 0.14 | 48 | 1013.3 |
| 20260506011509 | 64 | 39 | 1.0 | 3.0 | 0.00 | 0.25 | 0.14 | 45 | 1013.3 |
| 20260506010025 | 64 | 39 | 2.0 | 5.0 | 0.00 | 0.26 | 0.14 | 46 | 1013.3 |
| 20260506004509 | 64 | 39 | 3.0 | 5.0 | 0.00 | 0.26 | 0.14 | 46 | 1013.3 |
| 20260506003006 | 64 | 33 | 2.0 | 4.0 | 0.00 | 0.26 | 0.14 | 45 | 1013.3 |
| 20260506001512 | 64 | 349 | 1.0 | 5.0 | 0.00 | 0.26 | 0.14 | 48 | 1013.4 |
| 20260506000028 | 64 | 33 | 2.0 | 6.0 | 0.00 | 0.26 | 0.14 | 47 | 1013.5 |
| 20260505234522 | 63 | 21 | 3.0 | 7.0 | 0.00 | 0.26 | 0.14 | 52 | 1013.5 |
| 20260505233003 | 63 | 345 | 2.0 | 5.0 | 0.00 | 0.26 | 0.14 | 47 | 1013.5 |
| 20260505231513 | 63 | 2 | 2.0 | 5.0 | 0.00 | 0.26 | 0.14 | 47 | 1013.5 |
| 20260505230028 | 64 | 300 | 1.0 | 5.0 | 0.00 | 0.26 | 0.14 | 46 | 1013.7 |
| 20260505224516 | 64 | 225 | 3.0 | 7.0 | 0.00 | 0.26 | 0.14 | 49 | 1013.8 |
| 20260505223022 | 62 | 1 | 3.0 | 5.0 | 0.00 | 0.26 | 0.14 | 52 | 1014.0 |
| 20260505221508 | 62 | 288 | 2.0 | 6.0 | 0.00 | 0.26 | 0.14 | 54 | 1014.0 |
| 20260505220011 | 61 | 356 | 3.0 | 5.0 | 0.00 | 0.26 | 0.14 | 52 | 1014.1 |
| 20260505214520 | 60 | 360 | 3.0 | 6.0 | 0.00 | 0.26 | 0.14 | 57 | 1014.3 |
| 20260505213021 | 60 | 328 | 0.0 | 5.0 | 0.00 | 0.26 | 0.14 | 60 | 1014.5 |
| 20260505211530 | 59 | 320 | 1.0 | 5.0 | 0.00 | 0.26 | 0.14 | 61 | 1014.8 |
| 20260505210013 | 59 | 290 | 4.0 | 7.0 | 0.00 | 0.26 | 0.14 | 62 | 1014.9 |
| 20260505204511 | 58 | 273 | 3.0 | 5.0 | 0.00 | 0.26 | 0.14 | 67 | 1014.9 |
| 20260505203017 | 56 | 61 | 2.0 | 4.0 | 0.00 | 0.26 | 0.14 | 70 | 1015.0 |
| 20260505201520 | 55 | 25 | 1.0 | 4.0 | 0.00 | 0.26 | 0.14 | 74 | 1015.1 |
| 20260505200023 | 55 | 13 | 2.0 | 6.0 | 0.00 | 0.26 | 0.14 | 72 | 1015.2 |
| 20260505194510 | 53 | 84 | 3.0 | 6.0 | 0.00 | 0.26 | 0.14 | 79 | 1015.2 |
| 20260505193013 | 52 | 29 | 3.0 | 6.0 | 0.00 | 0.26 | 0.14 | 78 | 1015.3 |
| 20260505191519 | 51 | 352 | 3.0 | 4.0 | 0.00 | 0.26 | 0.14 | 78 | 1015.1 |
| 20260505190022 | 50 | 343 | 0.0 | 3.0 | 0.00 | 0.26 | 0.14 | 80 | 1015.2 |
| 20260505184530 | 49 | 345 | 2.0 | 4.0 | 0.00 | 0.26 | 0.14 | 81 | 1015.3 |
| 20260505183014 | 48 | 335 | 2.0 | 4.0 | 0.00 | 0.26 | 0.14 | 79 | 1015.2 |
| 20260505181515 | 48 | 297 | 1.0 | 4.0 | 0.00 | 0.26 | 0.14 | 79 | 1015.2 |
| 20260505180020 | 48 | 295 | 1.0 | 4.0 | 0.00 | 0.26 | 0.14 | 86 | 1014.9 |
| 20260505174535 | 47 | 295 | 0.0 | 3.0 | 0.00 | 0.26 | 0.14 | 84 | 1014.7 |
| 20260505173028 | 47 | 295 | 1.0 | 3.0 | 0.00 | 0.26 | 0.14 | 84 | 1014.4 |
| 20260505171517 | 47 | 294 | 1.0 | 3.0 | 0.00 | 0.27 | 0.14 | 87 | 1014.3 |
| 20260505170016 | 46 | 4 | 1.0 | 3.0 | 0.00 | 0.27 | 0.14 | 88 | 1014.2 |
| 20260505164521 | 45 | 4 | 0.0 | 3.0 | 0.00 | 0.27 | 0.14 | 86 | 1014.3 |
| 20260505163024 | 45 | 4 | 1.0 | 5.0 | 0.00 | 0.27 | 0.14 | 86 | 1014.2 |
| 20260505161528 | 45 | 10 | 2.0 | 3.0 | 0.00 | 0.27 | 0.14 | 88 | 1013.6 |
| 20260505153034 | 44 | 210 | 1.0 | 4.0 | 0.00 | 0.27 | 0.14 | 93 | 1013.4 |
| 20260505151525 | 44 | 179 | 2.0 | 4.0 | 0.00 | 0.27 | 0.14 | 93 | 1013.7 |
| 20260505124526 | 43 | 14 | 1.0 | 2.0 | 0.00 | 0.27 | 0.14 | 93 | 1011.7 |
| 20260505123044 | 43 | 14 | 0.0 | 0.0 | 0.00 | 0.27 | 0.14 | 93 | 1011.7 |
| 20260505121516 | 43 | 15 | 0.0 | 0.0 | 0.00 | 0.27 | 0.14 | 93 | 1011.4 |
| 20260505120021 | 43 | 15 | 0.0 | 0.0 | 0.00 | 0.27 | 0.14 | 93 | 1011.8 |
| 20260505114524 | 43 | 15 | 0.0 | 0.0 | 0.01 | 0.27 | 0.14 | 93 | 1011.5 |
| 20260505113029 | 43 | 15 | 0.0 | 3.0 | 0.02 | 0.27 | 0.14 | 93 | 1011.6 |
| 20260505111533 | 43 | 15 | 1.0 | 2.0 | 0.02 | 0.27 | 0.14 | 93 | 1011.6 |
| 20260505101511 | 44 | 36 | 1.0 | 6.0 | 0.05 | 0.25 | 0.12 | 93 | 1012.0 |
| 20260505100014 | 44 | 41 | 3.0 | 5.0 | 0.05 | 0.24 | 0.11 | 92 | 1012.0 |
| 20260505094520 | 44 | 41 | 0.0 | 1.0 | 0.03 | 0.21 | 0.08 | 92 | 1012.4 |
| 20260505093026 | 44 | 41 | 1.0 | 2.0 | 0.03 | 0.20 | 0.07 | 92 | 1012.2 |
| 20260505091506 | 44 | 41 | 0.0 | 3.0 | 0.04 | 0.20 | 0.07 | 92 | 1012.4 |
| 20260505090012 | 44 | 46 | 0.0 | 2.0 | 0.03 | 0.19 | 0.06 | 92 | 1012.9 |
| 20260505084516 | 44 | 46 | 1.0 | 4.0 | 0.03 | 0.18 | 0.05 | 91 | 1012.7 |
| 20260505083020 | 44 | 121 | 0.0 | 0.0 | 0.02 | 0.17 | 0.04 | 92 | 1012.3 |
| 20260505081528 | 44 | 121 | 1.0 | 3.0 | 0.01 | 0.16 | 0.03 | 92 | 1012.4 |
| 20260505080010 | 44 | 121 | 0.0 | 3.0 | 0.03 | 0.16 | 0.03 | 92 | 1012.7 |
| 20260505074513 | 44 | 117 | 0.0 | 0.0 | 0.03 | 0.15 | 0.02 | 91 | 1012.9 |
| 20260505073020 | 45 | 117 | 0.0 | 0.0 | 0.03 | 0.15 | 0.02 | 92 | 1012.7 |
| 20260505071520 | 45 | 117 | 0.0 | 3.0 | 0.03 | 0.15 | 0.02 | 91 | 1012.7 |
| 20260505070027 | 44 | 99 | 1.0 | 2.0 | 0.02 | 0.13 | 0.00 | 91 | 1012.9 |
| 20260505064511 | 45 | 100 | 0.0 | 3.0 | 0.01 | 0.12 | 0.12 | 91 | 1012.6 |
| 20260505063016 | 45 | 73 | 0.0 | 0.0 | 0.03 | 0.12 | 0.12 | 92 | 1012.4 |
| 20260505061519 | 45 | 73 | 0.0 | 2.0 | 0.05 | 0.12 | 0.12 | 91 | 1012.1 |
| 20260505060022 | 45 | 73 | 0.0 | 2.0 | 0.05 | 0.11 | 0.11 | 91 | 1012.2 |
| 20260505054543 | 45 | 73 | 0.0 | 2.0 | 0.05 | 0.11 | 0.11 | 91 | 1012.5 |
| 20260505053011 | 45 | 73 | 2.0 | 3.0 | 0.04 | 0.09 | 0.09 | 90 | 1013.0 |
| 20260505051516 | 45 | 70 | 0.0 | 0.0 | 0.03 | 0.07 | 0.07 | 90 | 1013.1 |
| 20260505041512 | 46 | 70 | 1.0 | 3.0 | 0.01 | 0.04 | 0.04 | 86 | 1012.3 |
| 20260505040021 | 46 | 70 | 0.0 | 3.0 | 0.01 | 0.04 | 0.04 | 86 | 1012.4 |
| 20260505034526 | 46 | 70 | 2.0 | 5.0 | 0.00 | 0.03 | 0.03 | 85 | 1012.4 |
| 20260505033030 | 46 | 89 | 0.0 | 0.0 | 0.00 | 0.03 | 0.03 | 85 | 1012.2 |
| 20260505031526 | 46 | 89 | 0.0 | 9.0 | 0.00 | 0.03 | 0.03 | 85 | 1012.1 |
| 20260505030033 | 47 | 69 | 4.0 | 8.0 | 0.00 | 0.03 | 0.03 | 85 | 1011.8 |